Location: Cranbrook Institute of Science
(42.5830°N, 83.2450°W)
Time: 00:54:31
(UTC-04:00)

Daily predictions for brighter satellites

Satellite Brightness Start Highest point End
(mag) Time Altitude Azimuth Time Altitude Azimuth Time Altitude Azimuth
ALOS 2 4.2 00:07:31 24° ENE 00:07:38 24° ENE 00:11:08 10° NNE
ASTEX 1 3.3 00:06:48 10° N 00:11:45 80° W 00:12:25 66° SSW
Spot 4 4.4 00:13:28 44° SW 00:14:12 47° W 00:18:55 10° NNW
Timation 1 Rocket 4.3 00:15:58 60° SSE 00:16:43 66° ESE 00:22:41 10° NNE
Terra 3.0 00:16:52 30° WSW 00:17:44 32° W 00:22:02 10° NNW
Okean 1-7 Rocket 3.6 00:13:27 10° N 00:17:45 71° NE 00:17:45 71° NE
Meteor 1-13 Rocket 4.3 00:16:19 10° N 00:22:15 72° E 00:23:12 60° SE
Lacrosse 5 4.2 00:27:11 12° ENE 00:27:11 12° ENE 00:27:35 10° ENE
Okean 1 Rocket 3.1 00:24:31 78° NNE 00:24:31 78° NNE 00:28:43 10° N
Meteor 2-21 4.5 00:23:24 56° SE 00:24:14 61° E 00:30:20 10° NNE
Cosmos 1809 Rocket 4.5 00:24:57 57° SE 00:25:48 63° E 00:31:56 10° NNE
BREEZE-M DEB (TANK) 4.4 00:21:42 10° WNW 00:26:27 23° WSW 00:26:27 23° WSW
Cosmos 1300 Rocket 3.7 00:29:22 69° WNW 00:29:22 69° WNW 00:33:39 10° N
Cosmos 1302 Rocket 4.5 00:31:59 47° E 00:31:59 47° E 00:36:32 10° NNE
USA 234 3.9 00:26:16 10° NE 00:32:35 54° NNW 00:38:53 10° WSW
Cosmos 2278 Rocket 4.1 00:27:54 10° WSW 00:32:37 26° NW 00:37:23 10° N
Cosmos 1025 Rocket 3.7 00:28:21 10° N 00:32:03 47° NE 00:32:03 47° NE
Meteor 1-11 Rocket 3.7 00:33:06 65° SE 00:33:38 69° E 00:39:26 10° NNE
Cosmos 1000 Rocket 4.4 00:32:12 10° N 00:38:27 86° W 00:39:32 64° S
Cosmos 1833 Rocket 2.9 00:33:06 10° NNW 00:38:36 56° WSW 00:39:00 55° SW
Gbstr 26 Del rocket 4.0 00:35:13 10° NW 00:39:40 41° NNE 00:40:15 38° NE
Cosmos 1812 4.2 00:37:10 10° NNW 00:40:03 31° WNW 00:40:03 31° WNW
Meteor 2-4 Rocket 3.9 00:37:11 10° N 00:42:30 55° ENE 00:42:48 54° E
Cosmos 1536 3.9 00:51:04 41° NNE 00:51:04 41° NNE 00:53:48 10° NNE
Cosmos 2082 Rocket 3.1 00:46:00 10° NW 00:51:07 35° WSW 00:51:28 35° WSW
Cosmos 1943 Rocket 4.3 00:52:36 13° E 00:52:36 13° E 00:54:15 10° ENE
Cosmos 1400 Rocket 3.7 00:56:13 47° N 00:56:13 47° N 00:59:14 10° N
Cosmos 1633 4.2 01:03:42 34° N 01:03:42 34° N 01:05:55 10° N
Cosmos 1503 Rocket 4.2 00:57:20 10° NNW 01:02:32 61° ENE 01:02:38 61° ENE
MOS 1-B Rocket 4.0 01:08:11 59° ESE 01:09:04 67° ENE 01:15:35 10° N
Meteor 2-15 Rocket 4.3 01:03:09 10° N 01:09:20 84° E 01:09:55 74° SSE
CZ-4B R/B 3.8 01:12:27 21° N 01:12:27 21° N 01:13:39 10° N
Meteor 1-19 Rocket 4.4 01:07:24 10° NNW 01:13:11 60° W 01:13:32 59° WSW
Cosmos 2285 Rocket 3.9 01:13:36 69° SE 01:14:03 72° ESE 01:20:25 10° NNE
Meteor 2-14 Rocket 4.4 01:14:12 67° SW 01:14:56 76° W 01:21:06 10° N
Meteor 1-23 Rocket 4.1 01:11:13 10° NNW 01:16:49 80° W 01:16:53 80° WSW
Cosmos 1821 Rocket 4.3 01:16:09 49° WSW 01:17:22 57° W 01:23:33 10° N
Cosmos 1605 Rocket 3.9 01:16:56 72° S 01:17:41 86° E 01:24:07 10° N
Meteor 2-15 4.3 01:12:15 10° NNW 01:18:21 72° W 01:18:53 68° SW
USA 229 DEB 4.5 01:16:30 10° NW 01:22:53 37° WSW 01:23:13 37° WSW
USA 229 4.5 01:16:35 10° NW 01:22:59 37° WSW 01:23:20 37° WSW
Cosmos 1892 Rocket 4.4 01:24:54 10° NNW 01:28:11 45° NW 01:28:11 45° NW
Cosmos 1153 Rocket 4.4 01:29:04 69° SE 01:29:42 75° E 01:36:03 10° N
Okean 2 4.5 01:27:24 10° NNW 01:30:20 43° NNW 01:30:20 43° NNW
Cosmos 2123 Rocket 4.1 01:25:49 10° NNW 01:31:59 60° W 01:32:36 58° WSW
Cosmos 1354 Rocket 4.1 01:27:50 10° NNW 01:32:38 66° WNW 01:32:38 66° WNW
Landsat 5 4.4 01:35:26 46° NW 01:35:26 46° NW 01:38:41 10° NNW
SeaSat 1 3.9 01:33:33 26° E 01:35:00 31° NE 01:39:18 10° N
Cosmos 2173 Rocket 4.4 01:36:12 47° ESE 01:36:50 49° E 01:42:54 10° NNE
Cosmos 1934 Rocket 4.5 01:36:52 43° WSW 01:37:51 46° WNW 01:43:40 10° N
NOSS 3-1 (A) 3.9 01:34:10 10° NW 01:41:48 86° SW 01:44:01 54° SSE
Cosmos 2369 Rocket 2.0 01:43:16 86° W 01:43:20 87° WNW 01:49:01 10° NNE
ALOS 2 4.1 01:44:55 28° WNW 01:44:55 28° WNW 01:47:46 10° NNW
Helios 1A Rocket 3.8 01:40:28 10° N 01:43:33 48° N 01:43:33 48° N
H-2A R/B 3.6 01:42:31 10° N 01:46:31 40° WNW 01:46:31 40° WNW
ISS -0.6 01:48:33 19° N 01:48:33 19° N 01:50:26 10° NE
Meteor 1-12 Rocket 4.2 01:48:04 72° ESE 01:48:07 72° E 01:53:45 10° NNE
Cosmos 1602 Rocket 4.2 01:46:24 10° N 01:49:56 56° N 01:49:56 56° N
Cosmos 1626 Rocket 4.2 01:52:57 10° N 01:56:30 56° NNW 01:56:30 56° NNW
Meteor 1-5 Rocket 4.4 01:57:58 53° W 01:58:07 54° WNW 02:03:23 10° N
Cosmos 1455 Rocket 4.1 02:01:01 38° NW 02:01:01 38° NW 02:04:25 10° N
Lacrosse 5 rocket 2.9 02:02:21 30° NNE 02:02:21 30° NNE 02:04:27 10° NE
ATLAS 2AS CENTAUR R/B 3.5 01:55:19 10° NNW 02:03:23 59° NE 02:08:36 22° ESE
Lacrosse 5 2.0 02:06:21 70° NW 02:06:21 70° NW 02:11:26 10° NE
CZ-2C R/B 2.6 02:01:38 10° N 02:06:49 67° WNW 02:06:52 67° WNW
Cosmos 1992 Rocket 4.0 02:10:48 70° WNW 02:10:48 70° WNW 02:15:57 10° NNE
NOSS 3-1 (C) 4.3 02:06:48 10° NW 02:14:05 48° WSW 02:14:48 47° SW
CZ-2C R/B 3.1 02:19:48 63° WNW 02:19:48 63° WNW 02:24:20 10° NNW
Cosmos 1500 4.4 02:27:54 41° N 02:27:54 41° N 02:30:30 10° N
GP-B 4.2 02:23:49 10° NNW 02:27:14 36° WNW 02:27:14 36° WNW
Cosmos 1656 Rocket 4.1 02:33:31 49° ESE 02:33:51 49° ESE 02:39:17 10° NE
Cosmos 1943 Rocket 2.0 02:34:07 75° WSW 02:34:29 80° WNW 02:40:07 10° NNE
Cosmos 1606 Rocket 4.0 02:36:15 55° ENE 02:36:15 55° ENE 02:39:57 10° NNE
Cosmos 2100 Rocket 4.3 02:37:13 48° WSW 02:38:15 53° WNW 02:44:31 10° N
Cosmos 1975 4.4 02:40:45 28° NW 02:40:45 28° NW 02:43:31 10° NNW
Cosmos 2061 Rocket 4.3 02:40:23 49° WSW 02:41:30 55° WNW 02:47:49 10° N
Cosmos 44 Rocket 3.6 02:41:14 10° NNW 02:46:20 65° NE 02:47:24 51° ESE
Cosmos 2058 Rocket 3.6 02:47:43 52° E 02:47:43 52° E 02:51:50 10° NNE
SL-8 R/B 4.0 02:44:57 10° WNW 02:49:45 66° NNE 02:54:30 10° ESE
Meteor 1-21 4.1 02:44:18 10° N 02:49:56 83° E 02:50:50 64° SSE
Cosmos 1802 Rocket 4.5 02:58:40 41° WSW 02:59:48 45° WNW 03:05:47 10° N
Cosmos 1953 Rocket 3.8 02:56:29 10° NNW 03:00:15 62° NW 03:00:15 62° NW
Cosmos 2233 Rocket 4.1 02:59:20 47° SSE 03:01:00 66° E 03:07:05 10° NNE
Cosmos 1570 Rocket 4.3 03:00:19 51° SE 03:01:03 55° ESE 03:06:16 10° NNE
Cosmos 2016 Rocket 4.3 03:01:30 45° WSW 03:02:34 50° WNW 03:08:31 10° N
Cosmos 1241 Rocket 4.4 02:57:24 10° NW 03:03:52 71° WSW 03:05:27 52° S
Cosmos 2098 Rocket 4.1 03:05:21 53° SSW 03:07:01 76° W 03:14:26 10° N
ERS-2 3.9 03:05:28 10° NE 03:08:34 24° E 03:08:37 24° E
SeaSat 1 3.3 03:13:21 35° W 03:13:21 35° W 03:17:01 10° NW
Cosmos 1726 Rocket 3.8 03:13:41 58° WNW 03:13:41 58° WNW 03:17:43 10° N
Cosmos 1818 4.3 03:12:06 35° W 03:13:37 44° NW 03:18:52 10° NNE
SL-08 R/B 3.5 03:12:33 50° SE 03:13:38 66° ENE 03:18:17 10° N
Cosmos 1743 4.1 03:18:58 29° NW 03:18:58 29° NW 03:21:44 10° NNW
BREEZE-M DEB (TANK) 3.3 03:06:49 10° WNW 03:19:04 86° NNE 03:22:11 13° ESE
Cosmos 1842 3.6 03:19:25 10° NNW 03:22:49 56° NW 03:22:49 56° NW
Cosmos 968 Rocket 4.4 03:19:41 10° NW 03:23:51 33° W 03:23:51 33° W
ISS -0.3 03:22:53 10° NW 03:25:09 17° N 03:27:25 10° NE
Cosmos 1758 Rocket 4.1 03:20:59 10° NNW 03:24:58 45° WNW 03:24:58 45° WNW
Geosat 3.9 03:22:09 10° NNE 03:27:13 78° ESE 03:28:15 56° S
Cosmos 2369 Rocket 4.4 03:25:02 10° W 03:28:13 16° NW 03:31:34 10° N
Meteor 2-9 Rocket 4.2 03:28:59 50° SSW 03:30:36 77° W 03:36:28 10° N
Cosmos 2219 3.3 03:25:45 10° NW 03:31:11 51° WSW 03:31:46 49° SW
ARIANE 5 R/B 3.8 03:28:08 10° NNE 03:32:44 33° E 03:35:16 21° SE
NOSS 3-3 (A) 4.0 03:31:06 45° SW 03:33:16 84° NW 03:40:03 10° NE
NOSS 3-3 (C) 4.0 03:31:12 45° SW 03:33:22 85° NW 03:40:08 10° NE
Milstar 3 Cent rocket 4.2 03:39:47 14° SSE 03:39:47 14° SSE 03:42:36 10° ESE
Cosmos 44 3.3 03:34:13 10° NNW 03:39:27 84° NE 03:42:36 23° SE
Cosmos 1340 3.5 03:35:55 10° NNW 03:38:47 38° WNW 03:38:47 38° WNW
Cosmos 2227 Rocket 2.9 03:34:19 10° NNW 03:39:54 53° ENE 03:45:26 10° SE
CZ-2D R/B 3.6 03:35:11 10° NE 03:39:58 30° E 03:43:29 16° SSE
Lacrosse 5 rocket 3.9 03:38:53 10° NW 03:40:45 13° NNW 03:42:36 10° N
Spot 4 Rocket 4.5 03:36:15 10° NNE 03:41:20 56° E 03:43:25 33° SSE
Cosmos 2208 Rocket 4.0 03:40:15 50° SW 03:41:31 72° WNW 03:46:46 10° NNE
Meteor 2-17 Rocket 4.5 03:39:51 42° SW 03:41:51 65° W 03:47:58 10° N
SL-16 R/B 3.3 03:36:57 10° SE 03:42:50 49° ENE 03:48:45 10° N
IRS-1C 4.1 03:37:42 10° NNE 03:43:05 81° ESE 03:44:57 42° S
Lacrosse 5 4.0 03:46:09 10° WNW 03:50:06 22° NNW 03:54:03 10° NNE
Cosmos 2034 Rocket 4.5 03:47:56 22° SSE 03:51:54 57° E 03:57:58 10° NNE
Cosmos 2298 Rocket 4.5 03:46:42 10° NNW 03:51:58 61° ENE 03:57:12 10° SSE
IRS-1D 4.2 03:47:57 10° NNE 03:52:43 45° E 03:55:21 24° SSE
Cosmos 2278 3.9 03:51:23 35° S 03:53:44 64° ESE 03:59:21 10° NNE
Cosmos 2369 4.1 03:51:18 31° S 03:53:47 56° ESE 03:59:20 10° NNE
ATLAS 2AS CENTAUR R/B 3.5 03:46:57 10° NW 03:54:04 36° WSW 03:55:56 32° SW
Cosmos 1666 4.0 03:55:17 27° WNW 03:55:17 27° WNW 03:58:23 10° NNW
Okean O Rocket 4.2 03:54:02 10° ENE 03:56:14 14° E 03:58:27 10° ESE
CBERS-1 4.1 03:51:15 10° N 03:56:19 63° WNW 03:58:00 40° SW
USA 161 1.8 03:57:20 63° ENE 03:57:20 63° ENE 04:00:13 10° N
Cosmos 405 Rocket 3.1 03:56:40 10° N 04:00:45 68° E 04:02:38 30° SSE
Cosmos 2297 Rocket 2.8 03:56:26 10° NNW 04:02:00 57° ENE 04:07:33 10° SE
UNK 4.3 04:01:09 14° SSE 04:05:08 59° ENE 04:09:45 10° N
ATLAS CENTAUR R/B 3.1 04:03:58 21° SSE 04:06:26 32° ESE 04:10:52 10° NE
UNKNOWN OBJECT B 4.4 04:03:24 10° NE 04:06:53 29° E 04:09:19 16° SSE
Meteor 1-24 Rocket 4.4 04:04:50 10° N 04:10:24 56° ENE 04:16:07 10° SSE
Cosmos 2228 4.3 04:12:56 25° W 04:13:35 26° WNW 04:17:13 10° NNW
GEOS 3 Rocket 3.5 04:10:58 10° SSE 04:16:11 71° SW 04:21:22 10° NW
Cosmos 220 Rocket 3.9 04:14:34 10° NNW 04:18:57 90° NE 04:22:31 15° SSE
Cosmos 1943 Rocket 4.3 04:16:10 10° WNW 04:19:11 15° NW 04:22:14 10° NNW
EO 1 Del DPAF 3.6 04:17:32 16° SSE 04:20:32 67° ENE 04:24:23 10° N
SL-24 R/B 4.4 04:24:10 20° S 04:27:44 66° WSW 04:32:24 10° NNW
Cosmos 858 Rocket 4.4 04:24:14 10° NNW 04:29:28 80° WSW 04:34:43 10° SSE
Cosmos 1408 Rocket 4.4 04:26:58 10° N 04:31:14 51° ENE 04:35:32 10° SSE
Cosmos 2150 Rocket 3.9 04:26:13 10° NNW 04:31:27 70° WSW 04:36:34 10° S
Cosmos 1812 Rocket 4.3 04:29:59 28° WSW 04:31:32 37° WNW 04:35:44 10° N
SL-8 R/B 4.2 04:27:45 10° WNW 04:32:08 36° SW 04:36:30 10° SSE
Resurs 1-4 Rocket 2.1 04:28:09 10° NNE 04:33:28 90° E 04:37:12 20° SSW
Cosmos 1378 3.8 04:30:50 10° N 04:34:34 55° E 04:38:17 10° SSE
Cosmos 468 Rocket 3.9 04:32:14 25° SSW 04:35:19 79° WNW 04:40:31 10° NNE
Cosmos 990 Rocket 4.3 04:32:22 10° NNW 04:37:38 70° ENE 04:42:52 10° SSE
Cosmos 1464 Rocket 4.4 04:35:08 23° SW 04:38:46 48° WNW 04:44:53 10° N
Cosmos-2242 4.3 04:36:29 10° SSE 04:40:28 38° E 04:44:28 10° NNE
Cosmos 1707 3.1 04:36:46 10° NNW 04:40:31 44° W 04:42:16 26° SSW
Cosmos 1441 Rocket 4.0 04:37:12 10° N 04:41:08 55° ENE 04:45:02 10° SSE
ERS-2 3.7 04:39:16 10° NNW 04:42:15 23° WNW 04:43:27 20° W
BREEZE-M DEB (TANK) 3.7 04:44:13 10° WNW 04:45:38 17° W 04:45:38 17° W
Cosmos 1898 Rocket 3.8 04:45:59 10° NNW 04:51:05 46° WSW 04:56:09 10° S
NOSS 2-1 (D) 3.5 04:49:20 24° SW 04:51:38 68° NW 04:56:08 10° NNE
NOSS 2-1 (C) 3.5 04:50:37 23° SW 04:52:58 68° NW 04:57:28 10° NNE
Okean 3 Rocket 4.2 04:50:29 10° NNW 04:54:34 38° W 04:57:18 18° SSW
Meteor 2-5 Rocket 4.5 04:49:44 10° NNW 04:55:01 36° W 04:59:14 15° SSW
Cosmos 1092 Rocket 4.0 04:49:34 10° N 04:55:52 87° W 05:02:11 10° S
BREEZE-M DEB 3.8 04:56:38 14° WNW 04:58:33 54° SSW 05:01:41 10° SE
BREEZE-M DEB (TANK) 2.9 04:56:29 10° WNW 04:59:08 48° N 05:03:21 10° E
BREEZE-M DEB (TANK) 3.2 04:55:47 12° WSW 05:00:24 50° NNW 05:02:49 10° NE
ISS -1.8 04:59:08 10° NW 05:02:13 39° NNE 05:05:19 10° E
GPS 2-04 Rocket1 4.0 05:01:21 18° SSW 05:03:02 23° S 05:06:04 10° ESE
Cosmos 1656 3.8 05:02:20 15° SW 05:07:01 69° WNW 05:12:41 10° NNE
NOSS 2-1 (E) 3.9 05:05:12 17° WSW 05:08:04 53° NW 05:12:38 10° NNE
Cosmos 1937 Rocket 3.8 05:03:57 10° NNW 05:08:50 44° WSW 05:13:45 10° S
ASTRO E2 4.5 05:07:59 15° SSW 05:09:13 16° S 05:11:48 10° SE
Cosmos 841 Rocket 3.5 05:04:53 11° SSW 05:09:54 89° ESE 05:15:13 10° NNE
Cosmos 2082 4.5 05:05:18 10° NW 05:10:10 30° WSW 05:15:00 10° SSW
ARIANE 5 R/B 3.5 05:07:19 10° N 05:11:47 31° WNW 05:15:37 13° SW
PSLV R/B 3.7 05:10:23 10° NNE 05:14:19 88° W 05:18:06 10° SSW
Cosmos 1697 Rocket 2.7 05:10:27 12° SSW 05:15:42 78° WNW 05:21:24 10° NNE
NOSS 3-4 (A) 3.8 05:10:08 10° NW 05:17:03 64° WSW 05:24:22 10° SSE
NOSS 3-4 (C) 3.8 05:10:14 10° NW 05:17:12 65° WSW 05:24:32 10° SSE
Cosmos 1763 Rocket 3.6 05:14:37 11° SSW 05:19:33 67° WNW 05:24:45 10° NNE
In-Cosmos 22 4.0 05:14:42 10° NNW 05:20:00 80° W 05:25:17 10° S
CZ-2D R/B 2.9 05:15:04 10° N 05:20:04 37° WNW 05:24:49 11° SW
UNK 4.2 05:18:22 10° NW 05:21:00 22° N 05:22:46 10° ENE
Cosmos 2142 Rocket 4.5 05:14:56 10° S 05:21:05 81° W 05:27:15 10° N
Cosmos 1980 Rocket 2.4 05:16:41 10° SSW 05:22:16 74° ESE 05:27:55 10° NNE
Thor Agena Rocket 3.6 05:17:21 10° SSE 05:22:24 85° ENE 05:27:29 10° NNW
ARGOS Delta rocket 4.3 05:17:24 10° NNE 05:22:38 69° E 05:27:33 10° S
Cosmos 2227 Rocket 3.3 05:19:13 10° NW 05:23:32 23° W 05:27:49 10° SSW
Cosmos 1470 4.1 05:22:22 10° SSE 05:26:03 40° E 05:29:47 10° NNE
SL-16 R/B 3.5 05:21:32 10° SSW 05:26:41 27° W 05:31:52 10° NW
CZ-2D R/B 4.0 05:22:54 10° N 05:26:59 44° WNW 05:31:09 10° SW
Cosmos 2322 Rocket 3.7 05:26:34 10° SSE 05:31:35 34° ESE 05:36:35 10° NE
Okean O Rocket 1.8 05:28:40 10° N 05:32:58 57° WNW 05:37:17 10° SSW
Cosmos 1674 3.5 05:29:19 10° N 05:33:03 54° E 05:36:44 10° SSE
CZ-3 Stage 3 4.4 05:00:00 10° W 05:34:41 45° SSW 05:41:13 10° SE
Lacrosse 5 4.4 05:31:40 10° NW 05:34:46 16° N 05:37:51 10° NE
Cosmos 1758 3.6 05:33:05 10° SSW 05:37:00 50° W 05:40:57 10° N
USA 234 4.5 05:32:15 10° E 05:38:27 46° NNE 05:44:38 10° NW
ADEOS Rocket 4.2 05:33:10 10° NNE 05:39:19 49° E 05:46:05 10° S
Cosmos 1437 2.8 05:36:57 10° NNW 05:40:16 61° W 05:43:33 10° S
Cosmos 1500 Rocket 3.6 05:36:15 10° N 05:40:41 86° W 05:45:03 10° S
Cosmos 2279 Rocket 4.1 05:34:45 10° S 05:41:01 89° ESE 05:47:19 10° N
UNKNOWN OBJECT B 4.3 05:38:14 10° NNW 05:41:16 21° WNW 05:44:14 10° WSW
BREEZE-M DEB (TANK) 2.9 05:37:09 10° WSW 05:41:47 78° NNW 05:46:21 10° ENE
Cosmos 1544 3.0 05:38:27 10° S 05:42:07 80° W 05:45:49 10° N
Cosmos 1655 Rocket 4.1 05:36:33 10° NNW 05:42:57 74° W 05:49:19 10° S
Cosmos 1743 Rocket 3.7 05:40:06 10° NNW 05:44:19 52° W 05:48:31 10° S
Cosmos 1953 2.9 05:40:48 10° SSW 05:44:35 39° WNW 05:48:26 10° N
ATLAS CENTAUR R/B 2.7 05:40:46 10° WSW 05:45:29 39° NW 05:50:11 10° NNE
Cosmos 2297 Rocket 3.4 05:41:28 10° NW 05:45:34 21° W 05:49:40 10° SSW
